INTEGRAL

Last updated on Sat Apr 13 2024 01:03:19 GMT+0100 (British Summer Time)

1 27540U 02048A 24103.35264222 .00000096 00000+0 00000+0 0 9991 2 27540 88.5488 23.8537 8663276 283.8560 125.7089 0.37582898 23646
UTC large
Height (km)
Speed (km/s)
/
Latitude / Longitude
Inclination (degrees)
Orbital Period (minutes)
Azimuth
Elevation
Range (km)
Doppler Factor

Next 0 passes for location: London (51.5072 / 0.1276)

Sorry there are no passes over London.